SAUDISAT 4

Last updated on Fri Dec 29 2023 00:03:29 GMT+0000 (Coordinated Universal Time)

1 40016U 14033G 23361.90389390 .00001347 00000+0 19602-3 0 9993 2 40016 97.6477 171.4696 0048304 127.5046 233.0571 14.76645386512774
UTC large
Height (km)
Speed (km/s)
/
Latitude / Longitude
Inclination (degrees)
Orbital Period (minutes)
Azimuth
Elevation
Range (km)
Doppler Factor

Next 0 passes for location: London (51.5072 / 0.1276)

Sorry there are no passes over London.
SAUDISAT 4